This is the latest recevied weather packets stored in our database for station/object W5LND-10. If no packets are shown the sender has not sent any weather packets the latest 10 day(s).
| Time | Temp. | Humidity | Pressure | Rain* | Wind** | Luminosity | Snow |
|---|---|---|---|---|---|---|---|
| 1777515686 | 16.67° C | 58% | 1010.4 hPa | 0 mm | - | 0 W/m² | - |
| 1777515386 | 17.22° C | 58% | 1010.3 hPa | 0 mm | - | 0 W/m² | - |
| 1777515086 | 17.22° C | 57% | 1010.2 hPa | 0 mm | - | 0 W/m² | - |
| 1777514786 | 17.22° C | 57% | 1010.1 hPa | 0 mm | - | 0 W/m² | - |
| 1777514486 | 17.22° C | 57% | 1010.1 hPa | 0 mm | - | 0 W/m² | - |
| 1777514186 | 17.22° C | 57% | 1010 hPa | 0 mm | - | 0 W/m² | - |
| 1777513886 | 17.78° C | 57% | 1009.8 hPa | 0 mm | - | 0 W/m² | - |
| 1777513586 | 17.78° C | 57% | 1009.9 hPa | 0 mm | - | 0 W/m² | - |
| 1777513286 | 17.78° C | 57% | 1009.8 hPa | 0 mm | - | 0 W/m² | - |
| 1777512986 | 17.78° C | 57% | 1009.6 hPa | 0 mm | - | 0 W/m² | - |
| 1777512686 | 17.78° C | 57% | 1009.6 hPa | 0 mm | - | 0 W/m² | - |
| 1777512386 | 18.33° C | 57% | 1009.7 hPa | 0 mm | - | 0 W/m² | - |
| 1777512086 | 18.33° C | 57% | 1009.5 hPa | 0 mm | - | 0 W/m² | - |
| 1777511786 | 18.33° C | 56% | 1009.4 hPa | 0 mm | - | 0 W/m² | - |
| 1777511486 | 18.33° C | 56% | 1009.5 hPa | 0 mm | - | 7 W/m² | - |
| 1777511186 | 18.33° C | 56% | 1009.4 hPa | 0 mm | - | 14 W/m² | - |
| 1777510886 | 18.33° C | 56% | 1009.5 hPa | 0 mm | - | 18 W/m² | - |
| 1777510586 | 18.89° C | 55% | 1009.5 hPa | 0 mm | - | 12 W/m² | - |
| 1777510286 | 18.89° C | 55% | 1009.6 hPa | 0 mm | - | 12 W/m² | - |
| 1777509986 | 18.89° C | 55% | 1009.8 hPa | 0 mm | - | 21 W/m² | - |
| 1777509686 | 18.89° C | 55% | 1009.5 hPa | 0 mm | - | 23 W/m² | - |
| 1777509386 | 18.89° C | 55% | 1009.4 hPa | 0 mm | - | 33 W/m² | - |
| 1777509086 | 18.89° C | 55% | 1009.4 hPa | 0 mm | - | 28 W/m² | - |
| 1777508786 | 18.89° C | 55% | 1009.3 hPa | 0 mm | - | 33 W/m² | - |
| 1777508486 | 18.89° C | 55% | 1009.5 hPa | 0 mm | - | 35 W/m² | - |
* Rain latest hour (hover to see other rain measurements)
** Current wind speed in m/s (hover to see current wind gust speed)